Flag for Czech Republic Weather past 2 weeks in Brno, Czech Republic

Now
57 °F

Overcast.


Feels Like: 57 °F
Forecast: 53 / 66 °F
Wind: 2 mph from West

Location: Brno / Turany

Current Time: May 26, 2015 at 1:40:22 AM

Latest Report: May 26, 2015 at 1:00 AM


Visibility: 7 mi

Pressure: 29.80 "Hg

Humidity: 89%

Dew point: 54 °F

Location of BrnoLocation

Historic Weather in Brno — Graph

°F

Brno temperature yesterday

Maximum temperature yesterday: 67 °F (at 6:00 PM)
Minimum temperature yesterday: 50 °F (at 4:00 AM)
Average temperature yesterday: 59 °F

Past Weeks' High & Low Weather Summary

 TemperatureHumidityPressure
High73 °F (May 12, 3:00 PM)96% (May 13, 6:00 AM)30.41 "Hg (May 13, 6:00 AM)
Low41 °F (May 18, 6:00 AM)31% (May 16, 1:00 PM)29.74 "Hg (May 14, 4:00 AM)
Average58 °F65%30.03 "Hg
* Reported Midnight between May 10 and May 11 — Midnight between May 25 and May 26, Brno, Weather by CustomWeather, © 2015

Note: Actual official high and low records may vary slightly from our data, if they occured in-between our weather recording intervals... More about our weather records

Advertising

Brno weather history for previous 24 hours

 ConditionsComfort  
Time TempWeatherWind HumidityBarometerVisibility
12:00 AM
Tue, May 26
59 °FOvercast.2 mph83%29.80 "Hg7 mi
11:00 PM
Mon, May 25
58 °FLight rain. Overcast.1 mph87%29.82 "Hg6 mi
10:00 PM58 °FLight rain. Overcast.3 mph86%29.84 "Hg6 mi
9:00 PM60 °FLight rain. Overcast.5 mph80%29.82 "Hg7 mi
8:00 PM62 °FOvercast.3 mph77%29.81 "Hg12 mi
7:00 PM64 °FOvercast.3 mph70%29.80 "Hg19 mi
6:00 PM67 °FOvercast.3 mph55%29.80 "Hg28 mi
5:00 PM67 °FOvercast.3 mph55%29.81 "Hg28 mi
4:00 PM66 °FOvercast.5 mph53%29.83 "Hg28 mi
3:00 PM66 °FOvercast.2 mph57%29.85 "Hg28 mi
2:00 PM66 °FOvercast.5 mph56%29.86 "Hg31 mi
1:00 PM66 °FOvercast.3 mph54%29.87 "Hg31 mi
12:00 PM66 °FOvercast.7 mph55%29.88 "Hg25 mi
11:00 AM65 °FPartly sunny.6 mph54%29.90 "Hg19 mi
10:00 AM63 °FPartly sunny.6 mph60%29.93 "Hg16 mi
9:00 AM60 °FPartly sunny.3 mph65%29.94 "Hg16 mi
8:00 AM56 °FPartly sunny.6 mph73%29.95 "Hg12 mi
7:00 AM52 °FPartly sunny.6 mph82%29.97 "Hg16 mi
6:00 AM51 °FPartly sunny.2 mph81%29.97 "Hg12 mi
5:00 AM51 °FScattered clouds.3 mph82%29.98 "Hg11 mi
4:00 AM50 °FPassing clouds.3 mph85%29.98 "Hg11 mi
3:00 AM51 °FPassing clouds.5 mph87%30.00 "Hg11 mi
2:00 AM53 °FPassing clouds.5 mph80%30.01 "Hg12 mi
1:00 AM54 °FPassing clouds.3 mph78%30.02 "Hg12 mi
Weather by CustomWeather, © 2015

See weather overviewHow to use our weather pages